TimeAKST,TemperatureF,Dew PointF,Humidity,Sea Level PressureIn,VisibilityMPH,Wind Direction,Wind SpeedMPH,Gust SpeedMPH,PrecipitationIn,Events,Conditions,WindDirDegrees,DateUTC
12:52 AM,-6.0,-18.9,54,29.86,10.0,East,10.4,-,N/A,,Clear,100,2013-01-24 09:52:00
1:52 AM,-7.1,-18.9,56,29.88,10.0,East,11.5,-,N/A,,Clear,100,2013-01-24 10:52:00
2:52 AM,-7.1,-20.0,53,29.88,10.0,ENE,9.2,-,N/A,,Clear,70,2013-01-24 11:52:00
3:52 AM,-9.9,-22.0,55,29.89,10.0,ENE,5.8,-,N/A,,Clear,70,2013-01-24 12:52:00
4:52 AM,-18.0,-25.1,70,29.91,10.0,WNW,5.8,-,N/A,,Clear,300,2013-01-24 13:52:00
5:52 AM,-24.0,-29.9,74,29.92,10.0,NW,4.6,-,N/A,,Clear,320,2013-01-24 14:52:00
6:52 AM,-27.0,-32.1,77,29.93,10.0,NNW,3.5,-,N/A,,Clear,340,2013-01-24 15:52:00
7:52 AM,-29.0,-35.0,73,29.95,10.0,Calm,Calm,-,N/A,,Clear,0,2013-01-24 16:52:00
8:52 AM,-29.9,-9999,N/A,29.96,10.0,NNW,3.5,-,N/A,,Clear,330,2013-01-24 17:52:00
9:52 AM,-31.0,-9999,N/A,29.97,10.0,Calm,Calm,-,N/A,,Clear,0,2013-01-24 18:52:00
10:52 AM,-29.9,-9999,N/A,29.98,10.0,Calm,Calm,-,N/A,,Clear,0,2013-01-24 19:52:00
11:52 AM,-26.0,-33.0,69,29.99,10.0,Calm,Calm,-,N/A,,Clear,0,2013-01-24 20:52:00
12:52 PM,-25.1,-32.1,70,30.00,10.0,Calm,Calm,-,N/A,,Clear,0,2013-01-24 21:52:00
1:52 PM,-24.0,-31.0,70,30.01,10.0,Calm,Calm,-,N/A,,Partly Cloudy,0,2013-01-24 22:52:00
2:52 PM,-24.0,-31.0,70,30.01,10.0,Calm,Calm,-,N/A,,Partly Cloudy,0,2013-01-24 23:52:00
3:52 PM,-25.1,-32.1,70,30.02,10.0,Calm,Calm,-,N/A,,Scattered Clouds,0,2013-01-25 00:52:00
4:52 PM,-25.1,-32.1,70,30.02,10.0,Calm,Calm,-,N/A,,Scattered Clouds,0,2013-01-25 01:52:00
5:52 PM,-25.1,-31.0,74,30.03,10.0,Calm,Calm,-,N/A,,Scattered Clouds,0,2013-01-25 02:52:00
6:52 PM,-27.9,-34.1,73,30.04,10.0,Calm,Calm,-,N/A,,Scattered Clouds,0,2013-01-25 03:52:00
7:52 PM,-27.9,-34.1,73,30.05,10.0,Calm,Calm,-,N/A,,Scattered Clouds,0,2013-01-25 04:52:00
8:52 PM,-29.0,-35.0,73,30.05,10.0,Calm,Calm,-,N/A,,Mostly Cloudy,0,2013-01-25 05:52:00
9:52 PM,-29.9,-9999,N/A,30.05,10.0,Calm,Calm,-,N/A,,Partly Cloudy,0,2013-01-25 06:52:00
10:52 PM,-31.0,-9999,N/A,30.06,10.0,Calm,Calm,-,N/A,,Clear,0,2013-01-25 07:52:00
11:52 PM,-34.1,-9999,N/A,30.06,10.0,Calm,Calm,-,N/A,,Partly Cloudy,0,2013-01-25 08:52:00